Weather History for Dillon, MT

Change the Weather History Date:

Friday, February 14, 2014

  Actual Average Record
Temperature  
Mean Temperature 30 °F 26 °F  
Max Temperature 38 °F 37 °F 55 °F (1991)
Min Temperature 21 °F 15 °F -31 °F (1936)
Degree Days  
Heating Degree Days 35    
Month to date heating degree days 757  
Since 1 July heating degree days 5190  
Cooling Degree Days 0    
Month to date cooling degree days 0  
Year to date cooling degree days 0  
Moisture  
Dew Point 21 °F    
Average Humidity 68    
Maximum Humidity 89    
Minimum Humidity 46    
Precipitation  
Precipitation 0.01 in 0.01 in 0.23 in (2003)
Month to date precipitation 0.16 0.10  
Year to date precipitation 0.18 0.38  
Snow  
Snow 0.00 in - - ()
Snow Depth 1.00 in    
Sea Level Pressure  
Sea Level Pressure 29.94 in    
Wind  
Wind Speed 9 mph (SSW)    
Max Wind Speed 21 mph    
Max Gust Speed 24 mph    
Visibility 10 miles    
Events Snow    
T = Trace of Precipitation, MM = Missing Value Source: NWS Daily Summary

Daily Weather History Graph

Daily Weather History Graph

Search for Another Location

Airport:

Trip Planner

Search our weather history database for the weather conditions in past years. The results will help you decide how hot, cold, wet, or windy it might be!

Date:

Astronomy

Feb. 14, 2014 Rise Set
Actual Time 7:32 AM MST 5:56 PM MST
Civil Twilight 7:02 AM MST 6:26 PM MST
Nautical Twilight 6:28 AM MST 7:01 PM MST
Astronomical Twilight 5:53 AM MST 7:35 PM MST
Moon 6:06 PM MST (2/14) 7:00 AM MST (2/14)
Length of Visible Light 11h 24m
Length of Day
10h 23m
Full, 100% of the Moon is Illuminated
Feb 14
Full
Feb 14
Full
Feb 22
Last Quarter
Mar 1
New
Mar 8
First Quarter

Hourly Weather History & Observations

Time (MST) Temp. Windchill Dew Point Humidity Pressure Visibility Wind Dir Wind Speed Gust Speed Precip Events Conditions
12:25 AM 21.9 °F 8.7 °F 9.0 °F 58% 30.02 in 10.0 mi SSE 15.0 mph - N/A   Clear
12:53 AM 26.1 °F 15.6 °F 8.1 °F 47% 30.08 in 10.0 mi South 11.5 mph - N/A   Clear
1:53 AM 24.1 °F 11.5 °F 9.0 °F 53% 30.07 in 10.0 mi SSE 15.0 mph - N/A   Clear
2:53 AM 24.1 °F 15.2 °F 10.0 °F 55% 30.05 in 10.0 mi South 8.1 mph - N/A   Clear
3:53 AM 25.0 °F 14.8 °F 10.0 °F 53% 30.02 in 10.0 mi SSE 10.4 mph - N/A   Clear
4:53 AM 27.0 °F 18.0 °F 9.0 °F 47% 30.02 in 10.0 mi South 9.2 mph - N/A   Clear
5:53 AM 25.0 °F 14.8 °F 12.0 °F 58% 30.03 in 10.0 mi SSW 10.4 mph - N/A   Overcast
6:53 AM 27.0 °F 14.7 °F 10.9 °F 51% 30.02 in 10.0 mi SSW 16.1 mph - N/A   Overcast
7:53 AM 28.9 °F 20.4 °F 12.0 °F 49% 30.01 in 10.0 mi SSW 9.2 mph - N/A   Overcast
8:53 AM 27.0 °F 20.5 °F 17.1 °F 66% 30.01 in 4.0 mi WSW 5.8 mph - 0.00 in Snow Light Snow
9:00 AM 27.0 °F 20.5 °F 19.0 °F 72% 29.92 in 9.0 mi Variable 5.8 mph - 0.00 in   Overcast
9:23 AM 28.9 °F 25.2 °F 21.9 °F 75% 29.91 in 4.0 mi NW 3.5 mph - 0.00 in Snow Light Snow
9:53 AM 30.0 °F 24.1 °F 23.0 °F 75% 29.99 in 10.0 mi NNE 5.8 mph - 0.00 in   Overcast
10:53 AM 32.0 °F 28.7 °F 23.0 °F 69% 29.96 in 10.0 mi NE 3.5 mph - N/A   Overcast
11:53 AM 35.1 °F 29.3 °F 21.9 °F 59% 29.93 in 10.0 mi West 6.9 mph - N/A   Partly Cloudy
12:53 PM 35.1 °F - 21.0 °F 57% 29.87 in 10.0 mi Calm Calm - N/A   Overcast
1:53 PM 34.0 °F 28.8 °F 24.1 °F 67% 29.86 in 10.0 mi SE 5.8 mph - N/A   Overcast
2:53 PM 36.0 °F - 25.0 °F 64% 29.84 in 10.0 mi Calm Calm - N/A   Overcast
3:53 PM 37.0 °F 29.8 °F 30.9 °F 79% 29.84 in 10.0 mi WSW 10.4 mph - N/A   Overcast
4:53 PM 36.0 °F 29.6 °F 32.0 °F 86% 29.81 in 10.0 mi WSW 8.1 mph - N/A   Overcast
5:53 PM 37.0 °F 27.0 °F 30.9 °F 79% 29.80 in 10.0 mi SW 18.4 mph - N/A   Overcast
6:53 PM 36.0 °F 28.0 °F 32.0 °F 86% 29.81 in 10.0 mi SW 11.5 mph - N/A   Overcast
7:53 PM 35.1 °F 26.9 °F 30.9 °F 85% 29.84 in 10.0 mi SW 11.5 mph - 0.01 in   Overcast
8:53 PM 35.1 °F 26.9 °F 28.0 °F 76% 29.86 in 10.0 mi SW 11.5 mph - N/A   Overcast
9:53 PM 34.0 °F 25.5 °F 28.9 °F 82% 29.90 in 10.0 mi SW 11.5 mph - N/A   Overcast
10:53 PM 33.1 °F 25.5 °F 27.0 °F 78% 29.91 in 10.0 mi SW 9.2 mph - N/A   Overcast
11:53 PM 33.1 °F 26.9 °F 28.0 °F 82% 29.92 in 10.0 mi WSW 6.9 mph - N/A   Overcast